FW6498 Weather Reports


Display with metric or nautical units.
time (UTC)temp
F
wind
direction
speed
MPH
gust
MPH
rain 1hr
in
rain 24hr
in
rain mn
in
humidity
%
barometer
mb
20260905202955 66 0 0.0 0.0 0.00 0.00 0.00 61 1021.3
20260905202454 66 0 0.0 0.0 0.00 0.00 0.00 61 1021.4
20260905201954 66 0 0.0 0.0 0.00 0.00 0.00 61 1021.3
20260905201453 66 0 0.0 0.0 0.00 0.00 0.00 60 1021.4
20260905200954 66 0 0.0 0.0 0.00 0.00 0.00 60 1021.3
20260905200454 66 0 0.0 0.0 0.00 0.00 0.00 61 1021.3
20260905195955 66 0 0.0 0.0 0.00 0.00 0.00 59 1021.2
20260905195454 67 0 0.0 0.0 0.00 0.00 0.00 60 1021.3
20260905194453 67 0 0.0 0.0 0.00 0.00 0.00 59 1021.3
20260905193954 67 0 0.0 0.0 0.00 0.00 0.00 58 1021.1
20260905193454 67 0 0.0 0.0 0.00 0.00 0.00 59 1021.0
20260905192955 67 0 0.0 0.0 0.00 0.00 0.00 59 1021.0
20260905192454 67 0 0.0 0.0 0.00 0.00 0.00 59 1020.9
20260905191954 67 0 0.0 0.0 0.00 0.00 0.00 57 1020.8
20260905191453 67 0 0.0 0.0 0.00 0.00 0.00 57 1020.8
20260905190955 67 0 0.0 0.0 0.00 0.00 0.00 57 1020.7
20260905190454 67 0 0.0 0.0 0.00 0.00 0.00 56 1020.7
20260905185955 68 0 0.0 0.0 0.00 0.00 0.00 55 1020.6
20260905185454 68 0 0.0 0.0 0.00 0.00 0.00 55 1020.5
20260905184453 69 0 0.0 0.0 0.00 0.00 0.00 52 1020.4
20260905183955 70 0 0.0 0.0 0.00 0.00 0.00 51 1020.4
20260905183454 71 0 0.0 0.0 0.00 0.00 0.00 51 1020.3
20260905182955 71 0 0.0 0.0 0.00 0.00 0.00 50 1020.4
20260905182453 71 0 0.0 0.0 0.00 0.00 0.00 49 1020.3
20260905181955 71 0 0.0 0.0 0.00 0.00 0.00 48 1020.2
20260905181453 72 0 0.0 0.0 0.00 0.00 0.00 48 1020.2
20260905180955 72 0 0.0 0.0 0.00 0.00 0.00 47 1020.1
20260905180454 72 0 0.0 0.0 0.00 0.00 0.00 47 1020.2
20260905175954 72 333 0.0 1.0 0.00 0.00 0.00 47 1020.0
20260905174955 72 328 0.0 5.0 0.00 0.00 0.00 46 1019.9
20260905174454 73 329 0.0 5.0 0.00 0.00 0.00 46 1019.9
20260905173454 73 333 0.0 1.0 0.00 0.00 0.00 44 1019.6
20260905171454 74 305 1.0 14.0 0.00 0.00 0.00 43 1019.5
20260905170955 75 312 1.0 14.0 0.00 0.00 0.00 43 1019.5
20260905170453 75 319 0.0 9.0 0.00 0.00 0.00 42 1019.5
20260905165955 75 320 0.0 9.0 0.00 0.00 0.00 43 1019.3
20260905165454 76 331 0.0 4.0 0.00 0.00 0.00 43 1019.3
20260905164955 76 321 0.0 7.0 0.00 0.00 0.00 43 1019.3
20260905164453 76 321 0.0 7.0 0.00 0.00 0.00 42 1019.2
20260905163954 76 332 1.0 11.0 0.00 0.00 0.00 42 1019.1
20260905163454 77 330 3.0 13.0 0.00 0.00 0.00 41 1019.1
20260905162954 77 328 3.0 13.0 0.00 0.00 0.00 41 1019.1
20260905162453 77 326 1.0 13.0 0.00 0.00 0.00 41 1019.0
20260905161454 78 325 3.0 15.0 0.00 0.00 0.00 41 1018.8
20260905160955 78 320 2.0 15.0 0.00 0.00 0.00 41 1018.8
20260905160453 78 320 3.0 15.0 0.00 0.00 0.00 40 1018.5
20260905155955 79 327 1.0 15.0 0.00 0.00 0.00 40 1018.4
20260905154955 79 301 1.0 7.0 0.00 0.00 0.00 40 1018.4
20260905154453 79 295 2.0 14.0 0.00 0.00 0.00 40 1018.3
20260905153955 79 291 3.0 14.0 0.00 0.00 0.00 39 1018.4
20260905153453 80 296 2.0 11.0 0.00 0.00 0.00 40 1018.5
20260905152954 80 324 2.0 13.0 0.00 0.00 0.00 39 1018.3
20260905152454 80 330 2.0 13.0 0.00 0.00 0.00 40 1018.3
20260905151955 80 287 1.0 13.0 0.00 0.00 0.00 40 1018.5
20260905150955 80 284 2.0 12.0 0.00 0.00 0.00 42 1018.5
20260905145955 80 288 1.0 13.0 0.00 0.00 0.00 40 1018.5
20260905145453 80 278 1.0 12.0 0.00 0.00 0.00 40 1018.5
20260905144954 79 276 2.0 13.0 0.00 0.00 0.00 40 1018.6
20260905144454 80 291 4.0 13.0 0.00 0.00 0.00 40 1018.6
20260905143955 80 284 4.0 14.0 0.00 0.00 0.00 40 1018.7
20260905142954 81 307 0.0 8.0 0.00 0.00 0.00 40 1018.6
20260905141454 81 273 1.0 9.0 0.00 0.00 0.00 41 1018.5
20260905140955 81 336 0.0 7.0 0.00 0.00 0.00 44 1018.6
20260905140454 81 321 0.0 7.0 0.00 0.00 0.00 46 1018.6
20260905135954 81 278 1.0 9.0 0.00 0.00 0.00 45 1018.7
20260905134955 80 340 1.0 11.0 0.00 0.00 0.00 45 1018.8
20260905133955 80 354 0.0 12.0 0.00 0.00 0.00 46 1018.7
20260905133454 79 355 0.0 12.0 0.00 0.00 0.00 47 1018.9
20260905132955 79 336 1.0 11.0 0.00 0.00 0.00 46 1018.8
20260905132454 79 333 1.0 11.0 0.00 0.00 0.00 45 1018.8
20260905131955 80 332 1.0 11.0 0.00 0.00 0.00 45 1018.8
20260905130955 80 331 4.0 14.0 0.00 0.00 0.00 45 1019.0
20260905125955 79 319 1.0 15.0 0.00 0.00 0.00 46 1019.0
20260905125454 78 309 1.0 12.0 0.00 0.00 0.00 46 1019.0
20260905124955 78 299 1.0 10.0 0.00 0.00 0.00 48 1019.0
20260905123954 77 275 0.0 4.0 0.00 0.00 0.00 49 1019.1
20260905123454 77 310 0.0 10.0 0.00 0.00 0.00 47 1019.2
20260905122454 78 321 2.0 14.0 0.00 0.00 0.00 48 1019.2
20260905121955 78 331 3.0 14.0 0.00 0.00 0.00 48 1019.1
20260905121454 78 340 1.0 13.0 0.00 0.00 0.00 49 1019.1
20260905120955 78 327 1.0 5.0 0.00 0.00 0.00 50 1019.2
20260905115955 77 331 1.0 11.0 0.00 0.00 0.00 50 1019.3
20260905114955 76 329 1.0 10.0 0.00 0.00 0.00 51 1019.3
20260905113954 76 308 1.0 4.0 0.00 0.00 0.00 50 1019.4
20260905113454 77 330 1.0 12.0 0.00 0.00 0.00 50 1019.4
20260905112955 77 331 1.0 12.0 0.00 0.00 0.00 51 1019.4
20260905112453 77 333 1.0 10.0 0.00 0.00 0.00 52 1019.5
20260905111955 76 336 2.0 13.0 0.00 0.00 0.00 53 1019.5
20260905111454 76 335 2.0 13.0 0.00 0.00 0.00 53 1019.7
20260905110454 74 317 0.0 7.0 0.00 0.00 0.00 55 1019.5
20260905105956 74 319 1.0 10.0 0.00 0.00 0.00 55 1019.5
20260905105454 73 321 1.0 10.0 0.00 0.00 0.00 56 1019.5
20260905104955 72 325 0.0 10.0 0.00 0.00 0.00 58 1019.8
20260905104454 72 306 0.0 1.0 0.00 0.00 0.00 59 1019.4
20260905103454 71 273 0.0 1.0 0.00 0.00 0.00 62 1019.6
20260905102955 70 337 0.0 1.0 0.00 0.00 0.00 62 1019.7
20260905101454 70 297 0.0 4.0 0.00 0.00 0.00 64 1019.9
20260905100955 69 297 0.0 4.0 0.00 0.00 0.00 65 1019.8
20260905100455 69 259 0.0 1.0 0.00 0.00 0.00 67 1019.8
20260905095454 68 174 0.0 1.0 0.00 0.00 0.00 71 1020.0
20260905094955 67 205 0.0 1.0 0.00 0.00 0.00 74 1019.9
20260905094455 66 0 0.0 0.0 0.00 0.00 0.00 76 1020.0
20260905093454 65 191 0.0 1.0 0.00 0.00 0.00 77 1020.1
20260905092955 65 127 0.0 1.0 0.00 0.00 0.00 80 1020.1
20260905092455 65 127 0.0 1.0 0.00 0.00 0.00 79 1020.1
20260905091955 65 0 0.0 0.0 0.00 0.00 0.00 80 1020.2
20260905091454 65 121 0.0 1.0 0.00 0.00 0.00 81 1020.3
20260905090955 65 119 0.0 2.0 0.00 0.00 0.00 80 1020.5
20260905090454 65 115 0.0 2.0 0.00 0.00 0.00 81 1020.6
20260905085453 65 0 0.0 0.0 0.00 0.00 0.00 82 1020.3
20260905084955 65 109 0.0 1.0 0.00 0.00 0.00 82 1020.3
20260905083955 65 142 0.0 1.0 0.00 0.00 0.00 82 1020.6
20260905083454 65 130 0.0 1.0 0.00 0.00 0.00 81 1020.5
20260905082955 65 0 0.0 0.0 0.00 0.00 0.00 81 1020.2
20260905082455 65 0 0.0 0.0 0.00 0.00 0.00 80 1020.5
20260905081955 66 281 0.0 1.0 0.00 0.00 0.00 78 1020.4
20260905081454 66 281 0.0 1.0 0.00 0.00 0.00 78 1020.2
20260905080454 67 28 0.0 1.0 0.00 0.00 0.00 75 1018.7
20260905075955 67 28 0.0 1.0 0.00 0.00 0.00 74 1018.2
20260905075454 67 0 0.0 0.0 0.00 0.00 0.00 72 1018.2
20260905074956 68 0 0.0 0.0 0.00 0.00 0.00 70 1018.8
20260905074454 68 0 0.0 0.0 0.00 0.00 0.00 67 1019.2
20260905073955 67 0 0.0 0.0 0.00 0.00 0.00 67 1019.7
20260905073454 68 0 0.0 0.0 0.00 0.00 0.00 66 1019.9
20260905072955 68 0 0.0 0.0 0.00 0.00 0.00 66 1018.9
20260905072455 68 0 0.0 0.0 0.00 0.00 0.00 66 1018.9
20260905070955 67 0 0.0 0.0 0.00 0.00 0.00 65 1019.6
20260905070454 67 321 1.0 13.0 0.00 0.00 0.00 64 1019.5
20260905065956 67 337 3.0 13.0 0.00 0.00 0.00 63 1019.0
20260905064955 68 351 1.0 12.0 0.00 0.00 0.00 62 1017.7
20260905064454 68 342 0.0 10.0 0.00 0.00 0.00 61 1019.1
20260905063955 69 341 1.0 11.0 0.00 0.00 0.00 59 1019.4
20260905062955 69 343 0.0 4.0 0.00 0.00 0.00 61 1018.6
20260905062454 69 343 0.0 9.0 0.00 0.00 0.00 62 1018.2
20260905061955 69 341 1.0 9.0 0.00 0.00 0.00 62 1018.1
20260905060955 69 342 1.0 13.0 0.00 0.00 0.00 61 1017.8
20260905060454 69 342 2.0 13.0 0.00 0.00 0.00 61 1017.9
20260905055955 69 344 1.0 10.0 0.00 0.00 0.00 63 1017.8
20260905054955 69 335 3.0 16.0 0.00 0.00 0.00 64 1017.8
20260905053955 70 347 2.0 15.0 0.00 0.00 0.00 64 1018.0
20260905053454 70 336 1.0 14.0 0.00 0.00 0.00 65 1017.9
20260905052955 70 337 0.0 4.0 0.00 0.00 0.00 64 1017.9
20260905052455 70 354 0.0 10.0 0.00 0.00 0.00 63 1017.7
20260905051956 70 344 1.0 11.0 0.00 0.00 0.00 63 1017.7
20260905050955 70 342 0.0 12.0 0.00 0.00 0.00 64 1017.2
20260905050454 70 330 3.0 20.0 0.00 0.00 0.00 65 1017.1
20260905045956 70 330 5.0 20.0 0.00 0.00 0.00 65 1017.2
20260905044955 70 333 1.0 8.0 0.00 0.00 0.00 66 1016.2
20260905044454 70 340 0.0 8.0 0.00 0.00 0.00 67 1016.0
20260905043955 70 336 0.0 7.0 0.00 0.00 0.00 67 1015.8
20260905043455 70 334 0.0 7.0 0.00 0.00 0.00 67 1015.9
20260905042955 70 334 0.0 6.0 0.00 0.00 0.00 67 1015.8
20260905042454 70 335 0.0 4.0 0.00 0.00 0.00 67 1016.0
20260905041955 70 338 0.0 4.0 0.00 0.00 0.00 67 1015.8
20260905041455 70 0 0.0 0.0 0.00 0.00 0.00 67 1015.3
20260905040956 70 339 0.0 2.0 0.00 0.00 0.00 66 1015.2
20260905040454 70 330 0.0 10.0 0.00 0.00 0.00 66 1014.8
20260905035955 70 331 1.0 10.0 0.00 0.00 0.00 66 1014.8
20260905035454 71 339 0.0 4.0 0.00 0.00 0.00 66 1014.9
20260905034955 71 351 0.0 6.0 0.00 0.00 0.00 66 1014.5
20260905034455 71 345 0.0 6.0 0.00 0.00 0.00 66 1014.3
20260905033955 71 327 0.0 3.0 0.00 0.00 0.00 65 1014.3
20260905033454 71 352 0.0 7.0 0.00 0.00 0.00 65 1014.1
20260905032955 71 347 0.0 7.0 0.00 0.00 0.00 65 1014.0
20260905031455 71 335 0.0 9.0 0.00 0.00 0.00 64 1014.0
20260905030956 71 347 0.0 4.0 0.00 0.00 0.00 65 1013.8
20260905030454 71 350 0.0 4.0 0.00 0.00 0.00 65 1013.7
20260905025454 71 339 1.0 10.0 0.00 0.00 0.00 67 1013.7
20260905024955 71 340 0.0 10.0 0.00 0.00 0.00 68 1013.6
20260905024455 71 339 0.0 7.0 0.00 0.00 0.00 69 1013.8
20260905023454 69 297 0.0 4.0 0.00 0.00 0.00 71 1013.8
20260905022955 69 327 0.0 4.0 0.00 0.00 0.00 71 1013.4
20260905022455 69 339 0.0 4.0 0.00 0.00 0.00 73 1013.7
20260905021956 69 0 0.0 0.0 0.00 0.00 0.00 73 1013.4
20260905021455 69 0 0.0 0.0 0.00 0.00 0.00 74 1013.3
20260905020955 69 0 0.0 0.0 0.00 0.00 0.00 73 1013.4
20260905015955 69 0 0.0 0.0 0.00 0.00 0.00 73 1013.3
20260905015454 69 0 0.0 0.0 0.00 0.00 0.00 72 1013.4
20260905014956 69 0 0.0 0.0 0.00 0.00 0.00 72 1013.5
20260905014455 69 0 0.0 0.0 0.00 0.00 0.00 71 1013.5
20260905013956 69 0 0.0 0.0 0.00 0.00 0.00 72 1013.2
20260905013454 69 0 0.0 0.0 0.00 0.00 0.00 72 1013.2
20260905012955 69 0 0.0 0.0 0.00 0.00 0.00 71 1013.2
20260905012454 69 0 0.0 0.0 0.00 0.00 0.00 71 1012.9
20260905011956 68 0 0.0 0.0 0.00 0.00 0.00 72 1012.9
20260905011456 68 0 0.0 0.0 0.00 0.00 0.00 72 1012.9
20260905010956 68 0 0.0 0.0 0.00 0.00 0.00 73 1013.0
20260905010454 68 0 0.0 0.0 0.00 0.00 0.00 73 1013.0
20260905005955 68 0 0.0 0.0 0.00 0.00 0.00 73 1013.0
20260905005454 68 0 0.0 0.0 0.00 0.00 0.00 73 1012.9
20260905004956 68 0 0.0 0.0 0.00 0.00 0.00 73 1012.9
20260905004454 68 0 0.0 0.0 0.00 0.00 0.00 73 1012.8
20260905003454 68 0 0.0 0.0 0.00 0.00 0.00 73 1012.8
20260905002455 68 137 0.0 1.0 0.00 0.00 0.00 72 1012.5
20260905001956 68 0 0.0 0.0 0.00 0.00 0.00 71 1012.6
20260905001455 68 0 0.0 0.0 0.00 0.00 0.00 71 1012.7
20260905000955 68 0 0.0 0.0 0.00 0.00 0.00 71 1012.5
20260905000454 68 0 0.0 0.0 0.00 0.00 0.00 71 1012.6
20260904235955 68 0 0.0 0.0 0.00 0.00 0.00 70 1012.5
20260904235455 68 0 0.0 0.0 0.00 0.00 0.00 70 1012.6
20260904234455 69 0 0.0 0.0 0.00 0.01 0.00 70 1012.7
20260904233955 69 0 0.0 0.0 0.00 0.01 0.00 71 1012.7
20260904232956 69 0 0.0 0.0 0.00 0.01 0.00 71 1012.5
20260904232455 68 0 0.0 0.0 0.00 0.01 0.00 71 1012.7
20260904231454 68 0 0.0 0.0 0.00 0.01 0.00 70 1012.5
20260904230956 68 0 0.0 0.0 0.00 0.01 0.00 70 1012.5
20260904230455 68 0 0.0 0.0 0.00 0.01 0.00 70 1012.6
20260904225956 68 0 0.0 0.0 0.00 0.01 0.00 70 1012.7
20260904225454 68 0 0.0 0.0 0.00 0.01 0.00 70 1012.7
20260904224955 68 0 0.0 0.0 0.00 0.01 0.00 70 1012.7
20260904224454 68 0 0.0 0.0 0.00 0.01 0.00 70 1012.6
20260904223455 68 0 0.0 0.0 0.00 0.01 0.00 71 1012.6
20260904222956 67 0 0.0 0.0 0.00 0.01 0.00 71 1012.5
20260904222455 68 0 0.0 0.0 0.00 0.01 0.00 70 1012.5
20260904221956 68 135 0.0 1.0 0.00 0.01 0.00 70 1012.6
20260904221455 68 135 0.0 1.0 0.00 0.01 0.00 69 1012.6
20260904220956 69 0 0.0 0.0 0.00 0.01 0.00 69 1012.6
20260904220455 69 134 0.0 1.0 0.00 0.01 0.00 69 1012.6
20260904215955 69 134 0.0 1.0 0.00 0.01 0.00 69 1012.5
20260904215455 69 0 0.0 0.0 0.00 0.01 0.01 68 1012.7
20260904214956 70 0 0.0 0.0 0.00 0.01 0.01 68 1012.7
20260904214454 70 134 0.0 1.0 0.00 0.01 0.01 68 1012.6
20260904213955 70 134 0.0 1.0 0.00 0.01 0.01 67 1012.6
20260904212956 70 0 0.0 0.0 0.00 0.01 0.01 67 1012.6
20260904211956 71 0 0.0 0.0 0.00 0.01 0.01 66 1012.7
20260904211455 71 0 0.0 0.0 0.00 0.01 0.01 66 1012.7
20260904210955 71 0 0.0 0.0 0.00 0.01 0.01 66 1012.7
20260904210454 71 0 0.0 0.0 0.00 0.01 0.01 65 1012.8
20260904205956 71 0 0.0 0.0 0.00 0.01 0.01 65 1012.9
20260904205455 72 0 0.0 0.0 0.00 0.01 0.01 65 1013.0
20260904204956 72 0 0.0 0.0 0.00 0.01 0.01 64 1012.9
20260904203956 72 0 0.0 0.0 0.00 0.01 0.01 64 1012.9